Hourly Weather Staryj Sambor

Today, 28 September, Monday

Time Temperature Precipitation Wind Pressure Humidity
00:00 +7°C° 0 mm 2 mps 727 mmHg 78%
01:00 +6°C° 0 mm 2 mps 727 mmHg 80%
02:00 +6°C° 0 mm 2 mps 727 mmHg 84%
03:00 +6°C° 0 mm 2 mps 727 mmHg 84%
04:00 +6°C° 0 mm 2 mps 727 mmHg 83%
05:00 +6°C° 0 mm 2 mps 727 mmHg 82%
06:00 +7°C° 0 mm 2 mps 727 mmHg 80%
07:00 +8°C° 0 mm 2 mps 727 mmHg 77%
08:00 +9°C° 0 mm 2 mps 727 mmHg 73%
09:00 +12°C° 0 mm 2 mps 727 mmHg 69%
10:00 +13°C° 0 mm 3 mps 727 mmHg 64%
11:00 +16°C° 0 mm 3 mps 726 mmHg 59%
12:00 +17°C° 0 mm 3 mps 726 mmHg 59%
13:00 +18°C° 0 mm 3 mps 726 mmHg 58%
14:00 +19°C° 0 mm 3 mps 726 mmHg 57%
15:00 +18°C° 0 mm 3 mps 725 mmHg 62%
16:00 +18°C° 0 mm 2 mps 725 mmHg 66%
17:00 +17°C° 0 mm 2 mps 725 mmHg 71%
18:00 +16°C° 0 mm 1 mps 725 mmHg 73%
19:00 +15°C° 0 mm 1 mps 725 mmHg 75%
20:00 +14°C° 0 mm 1 mps 724 mmHg 78%
21:00 +14°C° 0.1 mm 1 mps 724 mmHg 80%
22:00 +14°C° 0.1 mm 1 mps 724 mmHg 83%
23:00 +13°C° 0.1 mm 1 mps 724 mmHg 85%

Tomorrow, 29 September, Tuesday

Time Temperature Precipitation Wind Pressure Humidity
00:00 +13°C° 0.2 mm 1 mps 724 mmHg 87%
01:00 +13°C° 0.2 mm 1 mps 724 mmHg 88%
02:00 +13°C° 0.2 mm 1 mps 724 mmHg 90%
03:00 +13°C° 1.7 mm 1 mps 724 mmHg 92%
04:00 +13°C° 1.7 mm 1 mps 724 mmHg 94%
05:00 +13°C° 1.7 mm 1 mps 723 mmHg 97%
06:00 +13°C° 0.7 mm 1 mps 723 mmHg 97%
07:00 +13°C° 0.7 mm 1 mps 724 mmHg 97%
08:00 +12°C° 0.7 mm 0 mps 724 mmHg 97%
09:00 +12°C° 0.5 mm 0 mps 724 mmHg 96%
10:00 +12°C° 0.5 mm 0 mps 724 mmHg 96%
11:00 +13°C° 0.5 mm 0 mps 724 mmHg 95%
12:00 +13°C° 0.2 mm 0 mps 724 mmHg 92%
13:00 +15°C° 0.2 mm 1 mps 724 mmHg 89%
14:00 +16°C° 0.2 mm 1 mps 724 mmHg 86%
15:00 +16°C° 0.2 mm 1 mps 723 mmHg 87%
16:00 +15°C° 0.2 mm 1 mps 723 mmHg 88%
17:00 +15°C° 0.2 mm 1 mps 723 mmHg 89%
18:00 +14°C° 0.1 mm 1 mps 723 mmHg 91%
19:00 +13°C° 0.1 mm 1 mps 723 mmHg 94%
20:00 +13°C° 0.1 mm 1 mps 723 mmHg 97%
21:00 +12°C° 0.1 mm 1 mps 723 mmHg 97%
22:00 +12°C° 0.1 mm 1 mps 723 mmHg 98%
23:00 +12°C° 0.1 mm 1 mps 723 mmHg 98%

Day after tomorrow, 30 September, Wednesday

Time Temperature Precipitation Wind Pressure Humidity
00:00 +12°C° 0.1 mm 2 mps 723 mmHg 98%
01:00 +12°C° 0.1 mm 2 mps 722 mmHg 97%
02:00 +11°C° 0.1 mm 3 mps 722 mmHg 97%
03:00 +11°C° 1 mm 3 mps 722 mmHg 97%
04:00 +11°C° 1 mm 3 mps 721 mmHg 97%
05:00 +11°C° 1 mm 4 mps 721 mmHg 97%
06:00 +11°C° 2.4 mm 4 mps 721 mmHg 97%
07:00 +11°C° 2.4 mm 4 mps 720 mmHg 97%
08:00 +10°C° 2.4 mm 5 mps 720 mmHg 97%
09:00 +11°C° 0.7 mm 4 mps 720 mmHg 97%
10:00 +11°C° 0.7 mm 4 mps 720 mmHg 97%
11:00 +11°C° 0.7 mm 4 mps 720 mmHg 97%
12:00 +11°C° 0.8 mm 4 mps 720 mmHg 97%
13:00 +11°C° 0.8 mm 3 mps 719 mmHg 97%
14:00 +11°C° 0.8 mm 3 mps 719 mmHg 97%
15:00 +11°C° 0.5 mm 3 mps 719 mmHg 97%
16:00 +11°C° 0.5 mm 3 mps 719 mmHg 97%
17:00 +11°C° 0.5 mm 3 mps 719 mmHg 97%
18:00 +11°C° 0.4 mm 3 mps 719 mmHg 98%
19:00 +12°C° 0.4 mm 2 mps 719 mmHg 98%
20:00 +12°C° 0.4 mm 2 mps 720 mmHg 98%
21:00 +12°C° 0.7 mm 2 mps 720 mmHg 98%
22:00 +12°C° 0.7 mm 2 mps 719 mmHg 98%
23:00 +12°C° 0.7 mm 2 mps 719 mmHg 98%

1 October, Thursday

Time Temperature Precipitation Wind Pressure Humidity
00:00 +12°C° 0.5 mm 2 mps 719 mmHg 98%
01:00 +12°C° 0.5 mm 2 mps 719 mmHg 98%
02:00 +12°C° 0.5 mm 2 mps 719 mmHg 98%
03:00 +12°C° 0.6 mm 2 mps 719 mmHg 98%
04:00 +12°C° 0.6 mm 2 mps 719 mmHg 98%
05:00 +12°C° 0.6 mm 2 mps 718 mmHg 98%
06:00 +12°C° 1.9 mm 2 mps 718 mmHg 98%
07:00 +12°C° 1.9 mm 2 mps 718 mmHg 98%
08:00 +12°C° 1.9 mm 2 mps 718 mmHg 98%
09:00 +12°C° 0.8 mm 2 mps 718 mmHg 98%
10:00 +12°C° 0.8 mm 2 mps 718 mmHg 98%
11:00 +12°C° 0.8 mm 2 mps 718 mmHg 98%
12:00 +12°C° 0.3 mm 2 mps 718 mmHg 96%
13:00 +13°C° 0.3 mm 1 mps 718 mmHg 94%
14:00 +14°C° 0.3 mm 1 mps 718 mmHg 92%
15:00 +14°C° 0.3 mm 1 mps 718 mmHg 92%
16:00 +14°C° 0.3 mm 1 mps 718 mmHg 92%
17:00 +14°C° 0.3 mm 1 mps 719 mmHg 92%
18:00 +13°C° 0.1 mm 1 mps 719 mmHg 94%
19:00 +12°C° 0.1 mm 1 mps 719 mmHg 95%
20:00 +11°C° 0.1 mm 1 mps 719 mmHg 97%
21:00 +11°C° 0 mm 1 mps 719 mmHg 97%
22:00 +11°C° 0 mm 1 mps 719 mmHg 97%
23:00 +10°C° 0 mm 1 mps 720 mmHg 97%

2 October, Friday

Time Temperature Precipitation Wind Pressure Humidity
00:00 +10°C° 0 mm 1 mps 720 mmHg 97%
01:00 +9°C° 0 mm 0 mps 720 mmHg 97%
02:00 +9°C° 0 mm 0 mps 720 mmHg 97%
03:00 +9°C° 0 mm 0 mps 720 mmHg 96%
04:00 +9°C° 0 mm 0 mps 720 mmHg 96%
05:00 +9°C° 0 mm 0 mps 720 mmHg 96%
06:00 +9°C° 0 mm 0 mps 721 mmHg 95%
07:00 +10°C° 0 mm 0 mps 721 mmHg 94%
08:00 +10°C° 0 mm 0 mps 721 mmHg 93%
09:00 +11°C° 0 mm 0 mps 721 mmHg 89%
10:00 +13°C° 0 mm 0 mps 722 mmHg 84%
11:00 +14°C° 0 mm 0 mps 722 mmHg 79%
12:00 +14°C° 0.2 mm 0 mps 722 mmHg 79%
13:00 +15°C° 0.2 mm 0 mps 722 mmHg 78%
14:00 +15°C° 0.2 mm 0 mps 722 mmHg 78%
15:00 +15°C° 0.1 mm 0 mps 722 mmHg 80%
16:00 +14°C° 0.1 mm 0 mps 723 mmHg 83%
17:00 +14°C° 0.1 mm 0 mps 723 mmHg 86%
18:00 +14°C° 0 mm 1 mps 723 mmHg 88%
19:00 +13°C° 0 mm 1 mps 723 mmHg 90%
20:00 +12°C° 0 mm 1 mps 724 mmHg 93%
21:00 +12°C° 0 mm 1 mps 724 mmHg 93%
22:00 +11°C° 0 mm 1 mps 724 mmHg 93%
23:00 +11°C° 0 mm 1 mps 724 mmHg 94%

3 October, Saturday

Time Temperature Precipitation Wind Pressure Humidity
00:00 +11°C° 0 mm 1 mps 724 mmHg 93%
01:00 +10°C° 0 mm 1 mps 724 mmHg 93%
02:00 +10°C° 0 mm 1 mps 724 mmHg 93%
03:00 +10°C° 0 mm 1 mps 724 mmHg 93%
04:00 +10°C° 0 mm 1 mps 724 mmHg 93%
05:00 +9°C° 0 mm 2 mps 724 mmHg 93%
06:00 +9°C° 0 mm 2 mps 724 mmHg 92%
07:00 +10°C° 0 mm 2 mps 725 mmHg 91%
08:00 +12°C° 0 mm 2 mps 725 mmHg 90%
09:00 +13°C° 0.3 mm 2 mps 725 mmHg 89%
10:00 +14°C° 0.3 mm 2 mps 725 mmHg 87%
11:00 +15°C° 0.3 mm 2 mps 725 mmHg 86%
12:00 +14°C° 0 mm 3 mps 725 mmHg 85%
13:00 +16°C° 0 mm 3 mps 725 mmHg 83%
14:00 +17°C° 0 mm 3 mps 725 mmHg 81%
15:00 +17°C° 0 mm 3 mps 724 mmHg 81%
16:00 +17°C° 0 mm 3 mps 724 mmHg 80%
17:00 +17°C° 0 mm 3 mps 724 mmHg 80%
18:00 +16°C° 0 mm 3 mps 724 mmHg 82%
19:00 +16°C° 0 mm 3 mps 725 mmHg 83%
20:00 +14°C° 0 mm 3 mps 725 mmHg 85%
21:00 +14°C° 0 mm 3 mps 725 mmHg 83%
22:00 +14°C° 0 mm 3 mps 725 mmHg 82%
23:00 +14°C° 0 mm 3 mps 725 mmHg 81%
Show more